TimeCDT,TemperatureF,Dew PointF,Humidity,Sea Level PressureIn,VisibilityMPH,Wind Direction,Wind SpeedMPH,Gust SpeedMPH,PrecipitationIn,Events,Conditions,WindDirDegrees,DateUTC
12:53 AM,66.0,63.0,90,29.73,10.0,SSW,9.2,-,N/A,,Clear,200,2013-09-20 05:53:00
1:29 AM,66.2,62.6,88,29.76,10.0,SSW,9.2,-,N/A,,Mostly Cloudy,210,2013-09-20 06:29:00
1:38 AM,66.2,62.6,88,29.76,10.0,SW,8.1,-,N/A,,Mostly Cloudy,220,2013-09-20 06:38:00
1:53 AM,66.0,64.0,93,29.74,10.0,SSW,6.9,-,N/A,,Overcast,210,2013-09-20 06:53:00
2:53 AM,66.9,64.0,90,29.73,10.0,SW,5.8,-,N/A,,Overcast,230,2013-09-20 07:53:00
3:02 AM,66.2,64.4,94,29.74,10.0,SW,4.6,-,N/A,,Overcast,220,2013-09-20 08:02:00
3:53 AM,66.9,64.0,90,29.70,10.0,SW,4.6,-,N/A,,Overcast,220,2013-09-20 08:53:00
4:53 AM,66.9,64.0,90,29.70,10.0,West,4.6,-,N/A,,Overcast,270,2013-09-20 09:53:00
5:30 AM,66.2,64.4,94,29.72,10.0,SW,3.5,-,N/A,,Mostly Cloudy,230,2013-09-20 10:30:00
5:53 AM,66.9,64.0,90,29.71,10.0,WSW,4.6,-,N/A,,Overcast,240,2013-09-20 10:53:00
6:26 AM,66.2,64.4,94,29.73,10.0,SW,4.6,-,N/A,,Overcast,220,2013-09-20 11:26:00
6:53 AM,66.9,64.0,90,29.74,3.0,SSW,5.8,-,0.01,Rain,Rain,210,2013-09-20 11:53:00
7:22 AM,66.2,64.4,94,29.75,2.5,SW,4.6,-,0.03,Rain,Heavy Rain,230,2013-09-20 12:22:00
7:33 AM,66.2,64.4,94,29.75,4.0,SW,4.6,-,0.04,Rain,Light Rain,220,2013-09-20 12:33:00
7:42 AM,66.2,64.4,94,29.75,4.0,SW,3.5,-,0.04,Rain,Light Rain,220,2013-09-20 12:42:00
7:53 AM,66.9,64.0,90,29.75,6.0,WSW,5.8,-,0.04,,Overcast,240,2013-09-20 12:53:00
8:07 AM,66.2,64.4,94,29.75,10.0,West,5.8,-,N/A,,Overcast,260,2013-09-20 13:07:00
8:15 AM,66.2,64.4,94,29.75,10.0,West,5.8,-,N/A,,Overcast,270,2013-09-20 13:15:00
8:42 AM,66.2,62.6,88,29.76,10.0,West,8.1,-,0.00,,Overcast,280,2013-09-20 13:42:00
8:53 AM,68.0,63.0,84,29.75,10.0,West,8.1,-,0.00,,Mostly Cloudy,280,2013-09-20 13:53:00
9:03 AM,68.0,62.6,83,29.76,10.0,West,8.1,-,N/A,,Mostly Cloudy,270,2013-09-20 14:03:00
9:10 AM,68.0,62.6,83,29.77,10.0,West,8.1,-,N/A,,Mostly Cloudy,280,2013-09-20 14:10:00
9:26 AM,68.0,62.6,83,29.77,10.0,West,8.1,-,N/A,,Scattered Clouds,270,2013-09-20 14:26:00
9:53 AM,68.0,63.0,84,29.76,10.0,West,11.5,-,N/A,,Clear,270,2013-09-20 14:53:00
10:19 AM,69.8,62.6,78,29.77,10.0,West,9.2,-,N/A,,Mostly Cloudy,270,2013-09-20 15:19:00
10:38 AM,69.8,60.8,73,29.77,10.0,West,11.5,-,N/A,,Scattered Clouds,260,2013-09-20 15:38:00
10:46 AM,69.8,60.8,73,29.77,10.0,West,11.5,19.6,N/A,,Mostly Cloudy,280,2013-09-20 15:46:00
10:53 AM,69.1,60.1,73,29.76,10.0,West,11.5,21.9,N/A,,Scattered Clouds,270,2013-09-20 15:53:00
11:53 AM,70.0,60.1,71,29.75,10.0,West,10.4,17.3,N/A,,Mostly Cloudy,280,2013-09-20 16:53:00
12:03 PM,71.6,60.8,69,29.76,10.0,West,10.4,-,N/A,,Scattered Clouds,260,2013-09-20 17:03:00
12:53 PM,72.0,59.0,64,29.75,10.0,West,13.8,18.4,N/A,,Partly Cloudy,280,2013-09-20 17:53:00
1:20 PM,71.6,57.2,60,29.75,10.0,West,12.7,18.4,N/A,,Mostly Cloudy,270,2013-09-20 18:20:00
1:28 PM,71.6,57.2,60,29.75,10.0,West,13.8,20.7,N/A,,Mostly Cloudy,280,2013-09-20 18:28:00
1:53 PM,69.1,57.9,68,29.74,10.0,WNW,11.5,-,N/A,,Mostly Cloudy,290,2013-09-20 18:53:00
2:53 PM,66.9,55.9,68,29.75,10.0,West,13.8,-,N/A,,Scattered Clouds,270,2013-09-20 19:53:00
3:53 PM,64.9,55.0,70,29.76,10.0,West,11.5,18.4,N/A,,Mostly Cloudy,270,2013-09-20 20:53:00
4:53 PM,66.0,51.1,59,29.76,10.0,West,9.2,-,N/A,,Partly Cloudy,270,2013-09-20 21:53:00
5:53 PM,64.9,52.0,63,29.76,10.0,West,6.9,-,N/A,,Clear,280,2013-09-20 22:53:00
6:53 PM,62.1,51.1,67,29.77,10.0,West,6.9,-,N/A,,Clear,260,2013-09-20 23:53:00
7:53 PM,60.1,51.1,72,29.79,10.0,WSW,4.6,-,N/A,,Clear,250,2013-09-21 00:53:00
8:53 PM,60.1,52.0,75,29.80,10.0,West,9.2,-,N/A,,Overcast,270,2013-09-21 01:53:00
9:53 PM,59.0,53.1,81,29.80,10.0,WNW,9.2,-,N/A,,Overcast,290,2013-09-21 02:53:00
10:53 PM,59.0,52.0,78,29.81,10.0,WNW,9.2,-,N/A,,Overcast,290,2013-09-21 03:53:00
11:53 PM,57.0,53.1,87,29.82,10.0,WNW,8.1,-,N/A,,Mostly Cloudy,290,2013-09-21 04:53:00